Regional Weather Roundup
Issued by NWS State College, PA

Home | Current Version | Previous Version | Graphics & Text | Print | Product List | Glossary On
Versions: 1 2 3 4 5 6 7 8 9 10 11 12 13 14 15 16 17 18 19 20 21 22 23 24 25 26 27 28 29 30 31 32 33 34 35 36 37 38 39 40 41 42 43 44 45 46 47 48 49 50
000
ASUS41 KCTP 261910
RWRCTP

REGIONAL WEATHER ROUNDUP
NATIONAL WEATHER SERVICE STATE COLLEGE PA
300 PM EDT SUN MAR 26 2017

Note: "fair" indicates few or no clouds below 12,000 feet with no
significant weather and/or obstructions to visibility.

* = STATION THAT DOES NOT REPORT PRECIPITATION /E.G. RAIN...SNOW...ETC/
    THUNDER OR FOG.

PAZ002>004-007>009-013>016-020>023-029>032-262000-
WESTERN PENNSYLVANIA

CITY           SKY/WX    TMP DP  RH WIND       PRES   REMARKS
ERIE           CLOUDY    65  47  52 S15G25    29.97F
MEADVILLE      PTSUNNY   67  47  48 S8G21     29.98F
FRANKLIN*      PTSUNNY   64  46  52 SE17G24   30.03F
NEW CASTLE     CLOUDY    67  50  54 SE9       29.99F
BEAVER COUNTY  NOT AVBL
BUTLER*        PTSUNNY   63  46  55 SE13      30.03F
PITTSBURGH INT LGT RAIN  64  49  57 SE12      30.01F
PITTSBURGH     CLOUDY    63  45  51 SE13G20   30.03F
INDIANA*       MOSUNNY   57  45  62 SE12G22   30.11F
LATROBE        CLOUDY    57  46  67 E7        30.08F
WASHINGTON CO* CLOUDY    63  52  67 S12G17    30.05S
$$

PAZ004>006-010>012-017>019-024>028-033>037-041-042-045-046-049>053-262000-
CENTRAL PENNSYLVANIA

CITY           SKY/WX    TMP DP  RH WIND       PRES   REMARKS
BRADFORD       CLOUDY    44  42  93 SE15G21   30.11F FOG
DUBOIS         CLOUDY    51  41  68 SE15G23   30.10F
CLEARFIELD       N/A    N/A N/A N/A MISG      30.18F
JOHNSTOWN      CLOUDY    45  42  89 SE13      30.13F
ALTOONA        CLOUDY    46  42  86 E10       30.20F
STATE COLLEGE  CLOUDY    43  39  87 E9        30.22  FOG
WILLIAMSPORT   CLOUDY    44  36  73 E9        30.29F
SELINSGROVE    CLOUDY    44  38  79 SE8       30.32F
FT INDIANTOWN  CLOUDY    43  41  92 E8        30.32F
CAPITAL CITY   CLOUDY    47  39  74 E13       30.31F
HARRISBURG     CLOUDY    46  41  82 SE13      30.31F
YORK           CLOUDY    45  42  89 E12       30.30F
$$

PAZ038>040-043-044-047-048-054-055-060>062-067>071-262000-
EASTERN PENNSYLVANIA

CITY           SKY/WX    TMP DP  RH WIND       PRES   REMARKS
SCRANTON       CLOUDY    39  34  82 E3        30.32F
MOUNT POCONO   FOG       32  32 100 E13       30.30F VSB 3/4
ALLENTOWN      CLOUDY    44  34  67 E10       30.37F
QUAKERTOWN*    CLOUDY    39  36  87 E8        30.37F
READING        CLOUDY    43  38  82 SE5       30.34F
LANCASTER      CLOUDY    45  41  86 SE13      30.33F
COATESVILLE    CLOUDY    43  39  87 E14G23    30.35F
POTTSTOWN      CLOUDY    42  36  79 E5        30.37F
BLUE BELL      CLOUDY    41  37  87 E9        30.36F
DOYLESTOWN     CLOUDY    40  37  89 VRB5      30.37F
WILLOW GROVE   NOT AVBL
NORTH PHILA    CLOUDY    44  39  82 E13       30.40F
PHILADELPHIA   CLOUDY    45  39  79 E13       30.37F
$$




USA.gov is the U.S. government's official web portal to all federal, state and local government web resources and services.